Date,TemperatureHighF,TemperatureAvgF,TemperatureLowF,DewpointHighF,DewpointAvgF,DewpointLowF,HumidityHigh,HumidityAvg,HumidityLow,PressureMaxIn,PressureMinIn,WindSpeedMaxMPH,WindSpeedAvgMPH,GustSpeedMaxMPH,PrecipitationSumIn
2014-1-6,15,3,-16,13,-1,-20,91,82,69,30.10,29.66,0,0,0,0.00
2014-1-7,1,-8,-16,-6,-13,-21,79,76,69,30.37,30.11,0,0,0,0.00
2014-1-8,16,5,-3,8,0,-7,92,80,69,30.57,30.37,0,0,0,0.00
2014-1-9,21,7,-12,18,2,-16,90,83,69,30.66,30.34,0,0,0,0.00
2014-1-10,38,31,21,37,29,19,95,93,90,30.33,29.68,4,2,14,0.81
2014-1-11,40,37,31,39,35,28,97,93,86,29.65,29.31,7,4,17,0.14
2014-1-12,39,33,31,28,27,26,89,80,64,29.92,29.65,6,4,14,0.00
2014-1-19,28,21,11,24,17,9,90,84,74,29.84,29.54,10,4,21,0.00
2014-1-20,28,18,6,26,13,-4,93,79,64,30.14,29.53,3,1,8,0.00
2014-1-21,7,1,-8,-4,-7,-12,84,70,56,30.27,30.13,3,1,7,0.00
2014-1-22,10,1,-12,4,-3,-16,86,82,72,30.26,30.00,4,2,11,0.00
2014-1-23,12,5,-5,8,0,-8,88,80,61,30.52,30.01,4,1,9,0.00
2014-1-24,17,6,-6,12,-1,-10,88,73,52,30.49,29.53,8,5,25,0.00
2014-1-25,23,18,11,21,13,0,92,79,59,29.59,29.31,8,5,22,0.00
2014-2-16,23,14,1,16,9,-2,89,81,70,30.42,30.00,2,0,6,0.00
2014-2-17,19,10,-4,16,4,-7,92,79,48,30.44,29.68,7,2,17,0.00
2014-2-18,39,26,14,29,20,11,92,78,60,30.02,29.68,6,4,20,0.08
2014-2-19,43,35,30,32,28,26,92,74,56,30.03,29.62,5,3,12,0.09
2014-2-20,40,34,30,40,30,25,97,87,70,30.05,29.39,5,2,17,0.42
2014-2-21,44,34,28,43,26,14,97,71,53,29.72,29.36,12,8,27,0.00
2014-2-22,34,30,24,20,13,9,63,51,40,29.95,29.72,9,6,22,0.00
2014-3-28,47,41,34,44,37,30,93,85,77,30.20,29.52,8,4,19,0.05
2014-3-29,36,33,29,30,28,24,88,82,72,30.23,30.14,3,1,10,0.00
2014-3-30,45,34,24,26,23,20,89,67,43,30.26,30.14,3,1,8,0.00
2014-3-31,59,44,29,32,27,23,81,55,33,30.21,29.98,4,2,12,0.00
2014-4-1,57,44,33,42,31,25,74,61,45,29.99,29.68,8,5,26,0.01
2014-4-2,48,37,28,31,26,22,81,65,49,30.21,29.99,4,2,10,0.00
2014-4-3,38,35,32,30,27,22,84,73,65,30.21,29.89,7,4,16,0.08
2014-4-4,46,37,33,44,35,30,97,91,80,29.85,29.42,11,4,25,0.20
2014-4-5,45,35,28,29,24,21,85,66,40,30.19,29.72,10,5,24,0.00
2014-4-6,56,41,25,28,24,21,86,55,29,30.22,30.03,4,1,11,0.00
2014-4-7,54,42,31,39,29,22,92,63,36,30.04,29.52,4,1,10,0.11
2014-4-8,59,46,36,37,32,29,90,62,36,29.83,29.51,6,2,14,0.00
2014-4-9,56,44,31,34,27,22,76,54,31,30.01,29.84,5,2,12,0.00
2014-4-10,67,55,46,43,38,32,62,53,38,29.88,29.62,11,5,24,0.00
2014-4-11,61,47,32,34,29,20,85,53,22,30.03,29.88,6,1,16,0.00
2014-4-12,71,53,39,44,33,28,77,51,24,30.10,29.83,5,2,14,0.00
2014-7-22,87,76,64,71,66,59,89,71,54,30.08,29.88,3,1,7,0.00
2014-7-23,78,68,58,70,59,53,86,74,59,30.07,29.83,2,1,8,0.00
2014-7-24,74,63,52,57,52,50,94,71,42,30.13,30.03,1,0,5,0.00
2014-7-25,76,64,52,62,55,50,94,74,46,30.07,29.92,2,0,6,0.00
2014-7-26,80,70,59,65,61,56,91,76,58,29.94,29.74,2,0,5,0.00
2014-7-27,82,68,60,71,63,54,96,84,61,29.92,29.57,2,1,8,0.09
2014-7-28,62,58,54,54,50,48,84,75,67,29.99,29.93,1,0,5,0.00
2014-7-29,71,59,49,60,54,47,95,83,64,29.99,29.93,3,1,7,0.13
2014-7-30,73,62,54,62,57,53,97,86,60,30.00,29.94,1,0,3,0.03
2014-7-31,77,64,53,62,56,50,92,77,55,30.01,29.96,4,1,8,0.00
2014-8-1,81,68,60,66,61,57,93,80,58,30.08,30.01,2,0,5,0.00
2014-8-2,64,60,58,57,56,56,90,88,86,30.08,30.07,0,0,3,0.00
2014-8-3,66,66,65,62,61,60,86,85,84,30.05,30.04,0,0,0,0.00
2014-8-4,85,69,61,68,62,58,94,80,52,30.07,29.99,4,0,10,0.00
2014-8-5,78,68,62,66,63,61,96,85,63,30.06,29.99,2,0,5,0.06
2014-8-6,71,61,58,62,59,57,97,92,71,30.05,29.99,1,0,3,0.00
2014-8-7,82,67,54,62,57,53,95,73,44,30.12,30.04,1,0,4,0.00
2014-8-8,80,66,55,60,55,53,94,70,41,30.16,30.08,1,0,6,0.00
2014-8-9,81,66,52,61,55,51,96,71,44,30.15,30.07,2,0,7,0.00
2014-8-10,85,70,58,66,61,56,95,74,46,30.11,29.97,1,0,5,0.00
2014-8-11,77,68,63,68,64,61,97,89,73,29.99,29.68,1,0,5,0.70
2014-8-12,74,66,61,66,63,60,97,91,72,29.73,29.64,3,1,6,0.57
2014-9-4,81,71,62,70,65,60,93,83,68,30.02,29.91,3,0,7,0.00
2014-9-5,90,78,72,77,72,68,96,83,62,29.99,29.81,3,1,13,0.46
2014-9-6,72,64,58,68,58,52,97,82,53,30.11,29.90,2,0,5,0.09
2014-9-7,74,61,51,57,53,49,96,77,47,30.22,30.12,1,0,5,0.00
2014-9-8,77,63,51,59,54,49,97,76,46,30.20,30.04,1,0,5,0.00
2014-9-9,78,66,57,65,59,54,96,80,53,30.05,29.94,1,0,5,0.00
2014-9-10,74,69,62,71,66,58,95,89,79,29.97,29.50,4,1,14,0.30
2014-9-11,73,54,50,65,49,45,90,83,76,30.17,29.52,6,2,14,0.00
2014-9-12,55,53,51,51,50,48,95,90,82,30.30,30.20,1,0,4,0.04
2014-9-13,55,49,43,50,45,42,97,88,65,30.33,30.11,2,1,6,0.57
2014-9-14,60,50,41,48,44,40,96,81,56,30.35,30.19,2,0,7,0.00
2014-9-15,62,52,45,53,48,43,95,87,67,30.20,30.05,2,0,3,0.11
2014-10-17,62,54,47,52,50,44,96,87,67,29.67,29.46,7,3,15,0.03
2014-10-18,46,43,36,44,39,32,94,86,78,30.14,29.65,5,2,11,0.09
2014-10-19,51,40,28,38,33,27,95,78,57,30.22,29.96,3,1,8,0.00
2014-10-20,56,50,45,50,45,38,94,84,73,29.96,29.77,3,1,9,0.10
2014-10-21,47,44,39,44,40,35,95,87,79,30.25,29.89,1,1,10,0.04
2014-10-22,49,43,36,41,38,34,94,83,73,30.38,30.26,1,0,5,0.00
2014-10-23,54,39,28,42,35,27,97,86,59,30.31,30.12,2,0,5,0.00
2014-10-24,38,36,35,36,35,34,95,94,92,30.11,30.08,0,0,0,0.00